TRANSIT 18 DEB

基本信息
目录编号:
35416
目录名称:
TRANSIT 18 DEB
国际标识:
1968-012F
轨道中心:
EARTH
物体状态:
在轨
发射日期:
1968-03-02 UTC
轨道信息
数据来源: 国际轨道数据
星历时间: 2026-07-14T12:10:11+0800
半长轴: 7417.176km
偏心率: 0.0066936
轨道倾角: 90.023°
近地点辐角: 166.476°
升交点赤经: 273.459°
平近点角: 258.148°
近地点: 989.391km
远地点: 1088.687km
周期: 105.954分钟
每日圈数: 13.590798
详细信息
发射场:
AFWTR
轨道高度:
LEO
数据来源:
AOE Integration Group
参考系:
TEME
时间系统:
UTC
历元类型:
SGP4
2D轨道图
3D轨道图
轨道高度分析图
轨道倾角分析图
轨道综合分析图
查看轨道综合分析图